User: anonymous
Location: Deer Lodge Site
(39.6809°N, 119.9392°W)
Time: 13:56:52
(UTC-07:00)
Language:

CZ-4C R/B - Orbit

View from above orbital plane
View from above orbital plane
View from above satellite
View from above satellite

Ground track
Ground track

The orbit data is extracted from the following two-line orbital elements,

1 36416U 10009D   14108.22386395  .00000008  00000-0  91637-4 0  6829
2 36416 063.4483 120.5891 0274235 000.9834 051.0209 13.69409239206071
Epoch (UTC): 18 April 2014 05:22:21
Eccentricity: 0.0274235
inclination: 63.4483°
perigee height: 799 km
apogee height: 1204 km
right ascension of ascending node: 120.5891°
argument of perigee: 0.9834°
revolutions per day: 13.69409239
mean anomaly at epoch: 51.0209°
orbit number at epoch: 20607

The dashed part of the orbit path shows where the satellite is in the earth's shadow,  

DLR